| time (UTC) | temp F | wind direction | speed knots | gust knots | rain 1hr in | rain 24hr in | rain mn in | humidity % | barometer mb |
| 20260906224245 | 81 | 85 | 4.3 | 5.2 | 0.00 | 0.00 | 0.00 | 42 | 1022.4 |
| 20260906223742 | 81 | 190 | 2.6 | 2.6 | 0.00 | 0.00 | 0.00 | 42 | 1022.5 |
| 20260906223237 | 80 | 150 | 4.3 | 6.1 | 0.00 | 0.00 | 0.00 | 43 | 1022.5 |
| 20260906222734 | 80 | 88 | 7.8 | 9.6 | 0.00 | 0.00 | 0.00 | 43 | 1022.5 |
| 20260906222233 | 79 | 161 | 1.7 | 2.6 | 0.00 | 0.00 | 0.00 | 41 | 1022.9 |
| 20260906221731 | 80 | 127 | 7.0 | 7.0 | 0.00 | 0.00 | 0.00 | 42 | 1023.1 |
| 20260906221226 | 81 | 131 | 7.8 | 8.7 | 0.00 | 0.00 | 0.00 | 41 | 1023.1 |
| 20260906220722 | 80 | 28 | 1.7 | 2.6 | 0.00 | 0.00 | 0.00 | 41 | 1023.2 |
| 20260906220217 | 80 | 68 | 10.4 | 13.0 | 0.00 | 0.00 | 0.00 | 41 | 1023.2 |
| 20260906215716 | 78 | 197 | 2.6 | 2.6 | 0.00 | 0.00 | 0.00 | 43 | 1023.1 |
| 20260906215214 | 80 | 60 | 3.5 | 6.1 | 0.00 | 0.00 | 0.00 | 42 | 1023.0 |
| 20260906214712 | 80 | 118 | 3.5 | 3.5 | 0.00 | 0.00 | 0.00 | 43 | 1023.1 |
| 20260906214208 | 79 | 105 | 5.2 | 7.0 | 0.00 | 0.00 | 0.00 | 45 | 1023.0 |
| 20260906213702 | 79 | 170 | 7.0 | 8.7 | 0.00 | 0.00 | 0.00 | 44 | 1023.0 |
| 20260906213201 | 79 | 153 | 5.2 | 6.1 | 0.00 | 0.00 | 0.00 | 45 | 1023.2 |
| 20260906212659 | 79 | 167 | 7.8 | 7.8 | 0.00 | 0.00 | 0.00 | 44 | 1023.3 |
| 20260906212156 | 78 | 146 | 9.6 | 9.6 | 0.00 | 0.00 | 0.00 | 45 | 1023.3 |
| 20260906211655 | 79 | 137 | 5.2 | 7.0 | 0.00 | 0.00 | 0.00 | 44 | 1023.2 |
| 20260906211150 | 77 | 90 | 3.5 | 3.5 | 0.00 | 0.00 | 0.00 | 48 | 1023.3 |
| 20260906210646 | 77 | 89 | 3.5 | 3.5 | 0.00 | 0.00 | 0.00 | 47 | 1023.6 |
| 20260906210145 | 78 | 96 | 5.2 | 7.0 | 0.00 | 0.00 | 0.00 | 46 | 1023.6 |
| 20260906205641 | 78 | 153 | 3.5 | 3.5 | 0.00 | 0.00 | 0.00 | 45 | 1023.8 |
| 20260906205137 | 77 | 131 | 1.7 | 1.7 | 0.00 | 0.00 | 0.00 | 45 | 1023.7 |
| 20260906204636 | 77 | 211 | 3.5 | 3.5 | 0.00 | 0.00 | 0.00 | 46 | 1023.7 |
| 20260906204131 | 76 | 246 | 0.0 | 0.0 | 0.00 | 0.00 | 0.00 | 48 | 1023.8 |
| 20260906203632 | 77 | 131 | 9.6 | 11.3 | 0.00 | 0.00 | 0.00 | 46 | 1024.3 |
| 20260906203132 | 77 | 131 | 7.0 | 7.0 | 0.00 | 0.00 | 0.00 | 47 | 1024.0 |
| 20260906202629 | 76 | 170 | 3.5 | 6.1 | 0.00 | 0.00 | 0.00 | 48 | 1024.4 |
| 20260906202128 | 77 | 96 | 0.0 | 0.9 | 0.00 | 0.00 | 0.00 | 47 | 1024.5 |
| 20260906201623 | 75 | 291 | 0.0 | 0.0 | 0.00 | 0.00 | 0.00 | 50 | 1024.3 |
| 20260906201122 | 76 | 116 | 5.2 | 6.1 | 0.00 | 0.00 | 0.00 | 49 | 1024.4 |
| 20260906200619 | 76 | 71 | 1.7 | 3.5 | 0.00 | 0.00 | 0.00 | 48 | 1024.6 |
| 20260906200114 | 76 | 38 | 0.9 | 1.7 | 0.00 | 0.00 | 0.00 | 48 | 1024.7 |
| 20260906195609 | 76 | 133 | 5.2 | 6.1 | 0.00 | 0.00 | 0.00 | 48 | 1024.9 |
| 20260906195106 | 76 | 174 | 4.3 | 6.1 | 0.00 | 0.00 | 0.00 | 49 | 1024.9 |
| 20260906194601 | 75 | 73 | 1.7 | 3.5 | 0.00 | 0.00 | 0.00 | 49 | 1024.9 |
| 20260906194057 | 74 | 345 | 0.9 | 0.9 | 0.00 | 0.00 | 0.00 | 52 | 1024.9 |
| 20260906193556 | 74 | 182 | 2.6 | 2.6 | 0.00 | 0.00 | 0.00 | 52 | 1025.0 |
| 20260906193052 | 75 | 170 | 7.8 | 8.7 | 0.00 | 0.00 | 0.00 | 50 | 1025.3 |
| 20260906192548 | 74 | 186 | 6.1 | 7.8 | 0.00 | 0.00 | 0.00 | 52 | 1025.4 |
| 20260906192046 | 74 | 246 | 0.9 | 0.9 | 0.00 | 0.00 | 0.00 | 53 | 1025.3 |
| 20260906191542 | 73 | 221 | 0.0 | 0.9 | 0.00 | 0.00 | 0.00 | 55 | 1025.7 |
| 20260906191041 | 73 | 151 | 6.1 | 7.8 | 0.00 | 0.00 | 0.00 | 56 | 1025.6 |
| 20260906190540 | 73 | 78 | 1.7 | 3.5 | 0.00 | 0.00 | 0.00 | 54 | 1025.6 |
| 20260906190035 | 76 | 105 | 1.7 | 3.5 | 0.00 | 0.00 | 0.00 | 53 | 1025.7 |
| 20260906185534 | 74 | 102 | 0.9 | 0.9 | 0.00 | 0.00 | 0.00 | 54 | 1025.8 |
| 20260906185033 | 73 | 100 | 6.1 | 7.0 | 0.00 | 0.00 | 0.00 | 56 | 1026.0 |
| 20260906184528 | 73 | 23 | 4.3 | 5.2 | 0.00 | 0.00 | 0.00 | 55 | 1026.1 |
| 20260906184024 | 75 | 261 | 0.0 | 0.9 | 0.00 | 0.00 | 0.00 | 55 | 1026.2 |
| 20260906183520 | 74 | 81 | 1.7 | 2.6 | 0.00 | 0.00 | 0.00 | 55 | 1026.4 |
| 20260906183015 | 75 | 86 | 4.3 | 5.2 | 0.00 | 0.00 | 0.00 | 54 | 1026.4 |
| 20260906182510 | 72 | 28 | 2.6 | 5.2 | 0.00 | 0.00 | 0.00 | 57 | 1026.5 |
| 20260906182007 | 72 | 62 | 3.5 | 5.2 | 0.00 | 0.00 | 0.00 | 57 | 1026.8 |
| 20260906181502 | 71 | 26 | 3.5 | 3.5 | 0.00 | 0.00 | 0.00 | 59 | 1026.5 |
| 20260906180957 | 71 | 86 | 1.7 | 1.7 | 0.00 | 0.00 | 0.00 | 62 | 1026.8 |
| 20260906180452 | 71 | 311 | 0.9 | 0.9 | 0.00 | 0.00 | 0.00 | 59 | 1026.9 |
| 20260906175950 | 71 | 127 | 4.3 | 5.2 | 0.00 | 0.00 | 0.00 | 59 | 1026.9 |
| 20260906175445 | 72 | 110 | 0.0 | 0.9 | 0.00 | 0.00 | 0.00 | 59 | 1027.1 |
| 20260906174944 | 70 | 205 | 2.6 | 2.6 | 0.00 | 0.00 | 0.00 | 63 | 1026.9 |
| 20260906174443 | 72 | 7 | 1.7 | 2.6 | 0.00 | 0.00 | 0.00 | 59 | 1027.0 |
| 20260906173938 | 72 | 140 | 0.9 | 2.6 | 0.00 | 0.00 | 0.00 | 60 | 1027.2 |
| 20260906173433 | 72 | 72 | 1.7 | 1.7 | 0.00 | 0.00 | 0.00 | 58 | 1027.4 |
| 20260906172933 | 69 | 276 | 0.0 | 0.0 | 0.00 | 0.00 | 0.00 | 60 | 1027.4 |
| 20260906172430 | 69 | 77 | 2.6 | 2.6 | 0.00 | 0.00 | 0.00 | 64 | 1027.4 |
| 20260906171924 | 68 | 278 | 1.7 | 1.7 | 0.00 | 0.00 | 0.00 | 63 | 1027.4 |
| 20260906171419 | 68 | 247 | 0.0 | 0.0 | 0.00 | 0.00 | 0.00 | 62 | 1027.5 |
| 20260906170915 | 67 | 309 | 1.7 | 2.6 | 0.00 | 0.00 | 0.00 | 63 | 1027.4 |
| 20260906170411 | 66 | 301 | 1.7 | 1.7 | 0.00 | 0.00 | 0.00 | 64 | 1027.4 |
| 20260906165907 | 66 | 276 | 3.5 | 3.5 | 0.00 | 0.00 | 0.00 | 65 | 1027.5 |
| 20260906165406 | 66 | 275 | 2.6 | 2.6 | 0.00 | 0.00 | 0.00 | 65 | 1027.4 |
| 20260906164901 | 65 | 274 | 1.7 | 2.6 | 0.00 | 0.00 | 0.00 | 65 | 1027.4 |
| 20260906164400 | 65 | 248 | 4.3 | 5.2 | 0.00 | 0.00 | 0.00 | 64 | 1027.7 |
| 20260906163856 | 64 | 283 | 6.1 | 7.0 | 0.00 | 0.00 | 0.00 | 66 | 1027.3 |
| 20260906163353 | 64 | 253 | 5.2 | 6.1 | 0.00 | 0.00 | 0.00 | 64 | 1027.5 |
| 20260906162850 | 64 | 241 | 5.2 | 6.1 | 0.00 | 0.00 | 0.00 | 64 | 1027.8 |
| 20260906162349 | 63 | 266 | 7.0 | 7.8 | 0.00 | 0.00 | 0.00 | 64 | 1027.9 |
| 20260906161844 | 63 | 277 | 5.2 | 6.1 | 0.00 | 0.00 | 0.00 | 66 | 1027.8 |
| 20260906161344 | 63 | 256 | 8.7 | 8.7 | 0.00 | 0.00 | 0.00 | 65 | 1027.9 |
| 20260906160843 | 62 | 269 | 5.2 | 7.0 | 0.00 | 0.00 | 0.00 | 66 | 1027.8 |
| 20260906160337 | 62 | 259 | 5.2 | 7.0 | 0.00 | 0.00 | 0.00 | 67 | 1027.7 |
| 20260906155835 | 62 | 260 | 5.2 | 6.1 | 0.00 | 0.00 | 0.00 | 67 | 1027.7 |
| 20260906155329 | 62 | 273 | 5.2 | 6.1 | 0.00 | 0.00 | 0.00 | 67 | 1027.8 |
| 20260906154825 | 61 | 257 | 4.3 | 5.2 | 0.00 | 0.00 | 0.00 | 68 | 1027.9 |
| 20260906154320 | 61 | 242 | 3.5 | 3.5 | 0.00 | 0.00 | 0.00 | 68 | 1027.9 |
| 20260906153819 | 60 | 243 | 3.5 | 3.5 | 0.00 | 0.00 | 0.00 | 69 | 1027.8 |
| 20260906153318 | 60 | 242 | 2.6 | 2.6 | 0.00 | 0.00 | 0.00 | 70 | 1027.8 |
| 20260906152813 | 60 | 271 | 3.5 | 3.5 | 0.00 | 0.00 | 0.00 | 69 | 1028.0 |
| 20260906152308 | 60 | 255 | 3.5 | 5.2 | 0.00 | 0.00 | 0.00 | 70 | 1027.8 |
| 20260906151808 | 59 | 251 | 4.3 | 5.2 | 0.00 | 0.00 | 0.00 | 72 | 1027.9 |
| 20260906151303 | 59 | 250 | 4.3 | 5.2 | 0.00 | 0.00 | 0.00 | 70 | 1028.0 |
| 20260906150759 | 60 | 276 | 3.5 | 5.2 | 0.00 | 0.00 | 0.00 | 68 | 1028.0 |
| 20260906150254 | 59 | 240 | 2.6 | 2.6 | 0.00 | 0.00 | 0.00 | 70 | 1027.8 |
| 20260906145753 | 58 | 250 | 3.5 | 3.5 | 0.00 | 0.00 | 0.00 | 70 | 1027.9 |
| 20260906145251 | 58 | 238 | 3.5 | 3.5 | 0.00 | 0.00 | 0.00 | 70 | 1028.1 |
| 20260906144747 | 58 | 261 | 3.5 | 3.5 | 0.00 | 0.00 | 0.00 | 71 | 1028.0 |
| 20260906144242 | 58 | 280 | 4.3 | 5.2 | 0.00 | 0.00 | 0.00 | 72 | 1028.0 |
| 20260906143741 | 58 | 273 | 5.2 | 5.2 | 0.00 | 0.00 | 0.00 | 71 | 1027.8 |
| 20260906143239 | 58 | 278 | 5.2 | 5.2 | 0.00 | 0.00 | 0.00 | 69 | 1027.8 |
| 20260906142738 | 58 | 262 | 2.6 | 2.6 | 0.00 | 0.00 | 0.00 | 67 | 1027.8 |
| 20260906142233 | 57 | 271 | 3.5 | 3.5 | 0.00 | 0.00 | 0.00 | 69 | 1027.8 |
| 20260906141732 | 57 | 263 | 3.5 | 3.5 | 0.00 | 0.00 | 0.00 | 68 | 1027.8 |
| 20260906141227 | 57 | 282 | 3.5 | 3.5 | 0.00 | 0.00 | 0.00 | 67 | 1027.9 |
| 20260906140727 | 56 | 237 | 3.5 | 3.5 | 0.00 | 0.00 | 0.00 | 66 | 1027.7 |
| 20260906140221 | 56 | 271 | 4.3 | 5.2 | 0.00 | 0.00 | 0.00 | 66 | 1027.9 |
| 20260906135718 | 55 | 271 | 2.6 | 2.6 | 0.00 | 0.00 | 0.00 | 67 | 1027.7 |
| 20260906135214 | 55 | 263 | 2.6 | 2.6 | 0.00 | 0.00 | 0.00 | 67 | 1027.8 |
| 20260906134709 | 55 | 242 | 4.3 | 5.2 | 0.00 | 0.00 | 0.00 | 67 | 1027.9 |
| 20260906134205 | 54 | 261 | 2.6 | 2.6 | 0.00 | 0.00 | 0.00 | 68 | 1027.4 |
| 20260906133700 | 54 | 245 | 3.5 | 3.5 | 0.00 | 0.00 | 0.00 | 69 | 1027.9 |
| 20260906133155 | 53 | 253 | 2.6 | 2.6 | 0.00 | 0.00 | 0.00 | 73 | 1027.7 |
| 20260906132651 | 53 | 248 | 4.3 | 5.2 | 0.00 | 0.00 | 0.00 | 72 | 1027.7 |
| 20260906132146 | 52 | 239 | 3.5 | 3.5 | 0.00 | 0.00 | 0.00 | 71 | 1027.9 |
| 20260906131642 | 52 | 242 | 3.5 | 3.5 | 0.00 | 0.00 | 0.00 | 73 | 1027.7 |
| 20260906131137 | 52 | 242 | 4.3 | 5.2 | 0.00 | 0.00 | 0.00 | 73 | 1027.8 |
| 20260906130632 | 52 | 252 | 2.6 | 2.6 | 0.00 | 0.00 | 0.00 | 74 | 1028.0 |
| 20260906130127 | 52 | 255 | 3.5 | 3.5 | 0.00 | 0.00 | 0.00 | 75 | 1027.9 |
| 20260906125625 | 52 | 253 | 2.6 | 2.6 | 0.00 | 0.00 | 0.00 | 73 | 1027.8 |
| 20260906125123 | 52 | 244 | 3.5 | 3.5 | 0.00 | 0.00 | 0.00 | 72 | 1027.8 |
| 20260906124619 | 53 | 253 | 3.5 | 3.5 | 0.00 | 0.00 | 0.00 | 72 | 1027.9 |
| 20260906124114 | 53 | 253 | 3.5 | 3.5 | 0.00 | 0.00 | 0.00 | 73 | 1027.8 |
| 20260906123614 | 52 | 247 | 2.6 | 2.6 | 0.00 | 0.00 | 0.00 | 72 | 1027.8 |
| 20260906123109 | 53 | 238 | 2.6 | 2.6 | 0.00 | 0.00 | 0.00 | 71 | 1027.8 |
| 20260906122608 | 53 | 233 | 2.6 | 2.6 | 0.00 | 0.00 | 0.00 | 69 | 1027.8 |
| 20260906122104 | 54 | 230 | 1.7 | 1.7 | 0.00 | 0.00 | 0.00 | 69 | 1027.9 |
| 20260906121600 | 56 | 296 | 1.7 | 1.7 | 0.00 | 0.00 | 0.00 | 70 | 1027.7 |
| 20260906121056 | 56 | 267 | 1.7 | 1.7 | 0.00 | 0.00 | 0.00 | 70 | 1027.8 |
| 20260906120551 | 56 | 260 | 0.9 | 0.9 | 0.00 | 0.00 | 0.00 | 68 | 1027.8 |
| 20260906120049 | 56 | 223 | 1.7 | 1.7 | 0.00 | 0.00 | 0.00 | 68 | 1027.8 |
| 20260906115549 | 56 | 245 | 1.7 | 2.6 | 0.00 | 0.00 | 0.00 | 67 | 1027.7 |
| 20260906115044 | 56 | 251 | 3.5 | 3.5 | 0.00 | 0.00 | 0.00 | 67 | 1027.9 |
| 20260906114543 | 54 | 231 | 1.7 | 1.7 | 0.00 | 0.00 | 0.00 | 67 | 1027.9 |
| 20260906114039 | 56 | 215 | 1.7 | 2.6 | 0.00 | 0.00 | 0.00 | 64 | 1027.5 |
| 20260906113538 | 57 | 263 | 2.6 | 2.6 | 0.00 | 0.00 | 0.00 | 66 | 1027.4 |
| 20260906113033 | 58 | 271 | 2.6 | 2.6 | 0.00 | 0.00 | 0.00 | 64 | 1027.7 |
| 20260906112528 | 57 | 259 | 1.7 | 1.7 | 0.00 | 0.00 | 0.00 | 64 | 1027.8 |
| 20260906112025 | 57 | 272 | 0.9 | 0.9 | 0.00 | 0.00 | 0.00 | 64 | 1027.8 |
| 20260906111524 | 57 | 255 | 1.7 | 2.6 | 0.00 | 0.00 | 0.00 | 65 | 1027.7 |
| 20260906111020 | 58 | 251 | 2.6 | 2.6 | 0.00 | 0.00 | 0.00 | 63 | 1027.8 |
| 20260906110514 | 57 | 249 | 3.5 | 3.5 | 0.00 | 0.00 | 0.00 | 63 | 1027.8 |
| 20260906110014 | 57 | 252 | 1.7 | 1.7 | 0.00 | 0.00 | 0.00 | 62 | 1027.7 |
| 20260906105509 | 57 | 235 | 0.9 | 1.7 | 0.00 | 0.00 | 0.00 | 64 | 1027.7 |
| 20260906105005 | 56 | 280 | 1.7 | 2.6 | 0.00 | 0.00 | 0.00 | 63 | 1027.8 |
| 20260906104503 | 56 | 290 | 2.6 | 2.6 | 0.00 | 0.00 | 0.00 | 63 | 1027.7 |
| 20260906104002 | 57 | 277 | 2.6 | 2.6 | 0.00 | 0.00 | 0.00 | 62 | 1028.0 |
| 20260906103501 | 56 | 255 | 3.5 | 3.5 | 0.00 | 0.00 | 0.00 | 63 | 1027.9 |
| 20260906102956 | 56 | 254 | 0.9 | 1.7 | 0.00 | 0.00 | 0.00 | 62 | 1027.8 |
| 20260906102451 | 56 | 231 | 2.6 | 2.6 | 0.00 | 0.00 | 0.00 | 61 | 1028.0 |
| 20260906101951 | 56 | 255 | 1.7 | 1.7 | 0.00 | 0.00 | 0.00 | 62 | 1028.0 |
| 20260906101446 | 57 | 240 | 3.5 | 3.5 | 0.00 | 0.00 | 0.00 | 60 | 1028.0 |
| 20260906100941 | 56 | 253 | 0.0 | 0.0 | 0.00 | 0.00 | 0.00 | 62 | 1027.7 |
| 20260906100436 | 56 | 261 | 2.6 | 2.6 | 0.00 | 0.00 | 0.00 | 61 | 1027.8 |
| 20260906095936 | 57 | 267 | 5.2 | 5.2 | 0.00 | 0.00 | 0.00 | 60 | 1027.9 |
| 20260906095431 | 57 | 268 | 1.7 | 1.7 | 0.00 | 0.00 | 0.00 | 59 | 1027.9 |
| 20260906094926 | 58 | 236 | 1.7 | 2.6 | 0.00 | 0.00 | 0.00 | 59 | 1028.0 |
| 20260906094420 | 58 | 248 | 3.5 | 3.5 | 0.00 | 0.00 | 0.00 | 58 | 1027.7 |
| 20260906093916 | 60 | 253 | 1.7 | 2.6 | 0.00 | 0.00 | 0.00 | 55 | 1027.8 |
| 20260906093413 | 60 | 259 | 0.9 | 0.9 | 0.00 | 0.00 | 0.00 | 57 | 1027.7 |
| 20260906092913 | 61 | 264 | 0.9 | 0.9 | 0.00 | 0.00 | 0.00 | 54 | 1027.8 |
| 20260906092412 | 61 | 272 | 0.9 | 0.9 | 0.00 | 0.00 | 0.00 | 57 | 1027.8 |
| 20260906091908 | 60 | 272 | 0.0 | 0.0 | 0.00 | 0.00 | 0.00 | 55 | 1027.9 |
| 20260906091403 | 61 | 269 | 0.0 | 0.0 | 0.00 | 0.00 | 0.00 | 54 | 1028.0 |
| 20260906090900 | 61 | 281 | 1.7 | 1.7 | 0.00 | 0.00 | 0.00 | 53 | 1028.0 |
| 20260906090359 | 61 | 260 | 0.9 | 0.9 | 0.00 | 0.00 | 0.00 | 53 | 1028.0 |
| 20260906085854 | 61 | 233 | 0.9 | 0.9 | 0.00 | 0.00 | 0.00 | 54 | 1028.0 |
| 20260906085353 | 61 | 255 | 0.9 | 1.7 | 0.00 | 0.00 | 0.00 | 53 | 1028.1 |
| 20260906084848 | 60 | 256 | 1.7 | 1.7 | 0.00 | 0.00 | 0.00 | 55 | 1028.2 |
| 20260906084348 | 59 | 241 | 3.5 | 3.5 | 0.00 | 0.00 | 0.00 | 55 | 1028.2 |
| 20260906083842 | 59 | 243 | 3.5 | 3.5 | 0.00 | 0.00 | 0.00 | 55 | 1028.1 |
| 20260906083338 | 59 | 266 | 2.6 | 2.6 | 0.00 | 0.00 | 0.00 | 55 | 1028.1 |
| 20260906082838 | 60 | 249 | 3.5 | 5.2 | 0.00 | 0.00 | 0.00 | 54 | 1028.2 |
| 20260906082333 | 60 | 258 | 4.3 | 5.2 | 0.00 | 0.00 | 0.00 | 54 | 1028.2 |
| 20260906081829 | 60 | 259 | 4.3 | 5.2 | 0.00 | 0.00 | 0.00 | 53 | 1028.2 |
| 20260906081325 | 60 | 256 | 4.3 | 6.1 | 0.00 | 0.00 | 0.00 | 53 | 1028.2 |
| 20260906080821 | 60 | 259 | 4.3 | 6.1 | 0.00 | 0.00 | 0.00 | 54 | 1028.3 |
| 20260906080317 | 61 | 230 | 0.9 | 0.9 | 0.00 | 0.00 | 0.00 | 53 | 1028.3 |
| 20260906075816 | 61 | 249 | 2.6 | 2.6 | 0.00 | 0.00 | 0.00 | 53 | 1028.5 |
| 20260906075315 | 61 | 268 | 0.9 | 0.9 | 0.00 | 0.00 | 0.00 | 52 | 1028.1 |
| 20260906074811 | 62 | 256 | 1.7 | 1.7 | 0.00 | 0.00 | 0.00 | 52 | 1028.5 |
| 20260906074311 | 62 | 259 | 3.5 | 3.5 | 0.00 | 0.00 | 0.00 | 50 | 1028.5 |
| 20260906073810 | 62 | 246 | 1.7 | 1.7 | 0.00 | 0.00 | 0.00 | 51 | 1028.5 |
| 20260906073305 | 62 | 252 | 3.5 | 3.5 | 0.00 | 0.00 | 0.00 | 51 | 1028.7 |
| 20260906072801 | 62 | 241 | 4.3 | 5.2 | 0.00 | 0.00 | 0.00 | 50 | 1028.7 |
| 20260906072256 | 62 | 244 | 3.5 | 5.2 | 0.00 | 0.00 | 0.00 | 50 | 1028.6 |
| 20260906071752 | 62 | 218 | 3.5 | 3.5 | 0.00 | 0.00 | 0.00 | 51 | 1028.7 |
| 20260906071252 | 62 | 250 | 2.6 | 2.6 | 0.00 | 0.00 | 0.00 | 51 | 1028.6 |
| 20260906070749 | 62 | 260 | 3.5 | 3.5 | 0.00 | 0.00 | 0.00 | 51 | 1028.6 |
| 20260906070244 | 61 | 235 | 2.6 | 2.6 | 0.00 | 0.00 | 0.00 | 51 | 1028.7 |
| 20260906065744 | 62 | 231 | 1.7 | 1.7 | 0.00 | 0.00 | 0.00 | 51 | 1028.6 |
| 20260906065239 | 63 | 277 | 5.2 | 6.1 | 0.00 | 0.00 | 0.00 | 49 | 1028.6 |
| 20260906064735 | 63 | 267 | 1.7 | 1.7 | 0.00 | 0.00 | 0.00 | 49 | 1028.7 |
| 20260906064230 | 63 | 260 | 6.1 | 6.1 | 0.00 | 0.00 | 0.00 | 49 | 1028.3 |
| 20260906063725 | 62 | 276 | 7.8 | 7.8 | 0.00 | 0.00 | 0.00 | 49 | 1028.3 |
| 20260906063221 | 62 | 251 | 5.2 | 5.2 | 0.00 | 0.00 | 0.00 | 50 | 1028.3 |
| 20260906062716 | 63 | 250 | 5.2 | 5.2 | 0.00 | 0.00 | 0.00 | 49 | 1028.5 |
| 20260906062215 | 63 | 252 | 5.2 | 6.1 | 0.00 | 0.00 | 0.00 | 49 | 1028.3 |
| 20260906061711 | 64 | 253 | 5.2 | 5.2 | 0.00 | 0.00 | 0.00 | 47 | 1028.5 |
| 20260906061207 | 64 | 256 | 2.6 | 3.5 | 0.00 | 0.00 | 0.00 | 46 | 1028.2 |
| 20260906060703 | 64 | 247 | 2.6 | 3.5 | 0.00 | 0.00 | 0.00 | 46 | 1028.5 |
| 20260906060200 | 65 | 240 | 2.6 | 2.6 | 0.00 | 0.00 | 0.00 | 46 | 1028.5 |
| 20260906055655 | 64 | 257 | 0.0 | 0.0 | 0.00 | 0.00 | 0.00 | 47 | 1028.6 |
| 20260906055150 | 65 | 229 | 0.0 | 0.0 | 0.00 | 0.00 | 0.00 | 47 | 1028.3 |
| 20260906054645 | 66 | 318 | 2.6 | 2.6 | 0.00 | 0.00 | 0.00 | 45 | 1028.5 |
| 20260906054140 | 67 | 290 | 1.7 | 2.6 | 0.00 | 0.00 | 0.00 | 44 | 1028.7 |
| 20260906053638 | 68 | 78 | 0.9 | 0.9 | 0.00 | 0.00 | 0.00 | 43 | 1028.5 |
| 20260906053137 | 68 | 123 | 0.9 | 0.9 | 0.00 | 0.00 | 0.00 | 43 | 1028.5 |
| 20260906052633 | 68 | 51 | 1.7 | 1.7 | 0.00 | 0.00 | 0.00 | 43 | 1028.6 |
| 20260906052129 | 67 | 12 | 0.0 | 0.9 | 0.00 | 0.00 | 0.00 | 43 | 1028.5 |
| 20260906051626 | 68 | 348 | 0.0 | 0.0 | 0.00 | 0.00 | 0.00 | 43 | 1028.3 |
| 20260906051125 | 68 | 355 | 1.7 | 1.7 | 0.00 | 0.00 | 0.00 | 43 | 1028.5 |
| 20260906050622 | 68 | 99 | 2.6 | 2.6 | 0.00 | 0.00 | 0.00 | 42 | 1028.6 |
| 20260906050122 | 69 | 79 | 2.6 | 2.6 | 0.00 | 0.00 | 0.00 | 42 | 1028.3 |
| 20260906045620 | 69 | 77 | 0.0 | 0.9 | 0.00 | 0.00 | 0.00 | 42 | 1028.3 |
| 20260906045115 | 69 | 50 | 1.7 | 1.7 | 0.00 | 0.00 | 0.00 | 42 | 1028.2 |
| 20260906044611 | 69 | 25 | 0.0 | 0.0 | 0.00 | 0.00 | 0.00 | 42 | 1028.2 |
| 20260906044107 | 69 | 84 | 1.7 | 1.7 | 0.00 | 0.00 | 0.00 | 42 | 1028.3 |
| 20260906043603 | 69 | 31 | 0.0 | 0.9 | 0.00 | 0.00 | 0.00 | 41 | 1028.3 |
| 20260906043058 | 70 | 17 | 0.9 | 1.7 | 0.00 | 0.00 | 0.00 | 41 | 1028.5 |
| 20260906042557 | 70 | 97 | 4.3 | 6.1 | 0.00 | 0.00 | 0.00 | 40 | 1028.3 |
| 20260906042052 | 69 | 30 | 1.7 | 1.7 | 0.00 | 0.00 | 0.00 | 42 | 1028.5 |
| 20260906041549 | 68 | 232 | 0.0 | 0.0 | 0.00 | 0.00 | 0.00 | 42 | 1028.6 |
| 20260906041049 | 69 | 220 | 0.0 | 0.0 | 0.00 | 0.00 | 0.00 | 41 | 1028.5 |
| 20260906040544 | 69 | 272 | 0.0 | 0.0 | 0.00 | 0.00 | 0.00 | 41 | 1028.5 |
| 20260906040039 | 70 | 256 | 0.0 | 0.0 | 0.00 | 0.00 | 0.00 | 40 | 1028.3 |
| 20260906035534 | 71 | 298 | 0.0 | 0.9 | 0.00 | 0.00 | 0.00 | 38 | 1028.1 |
| 20260906035030 | 71 | 121 | 0.9 | 0.9 | 0.00 | 0.00 | 0.00 | 38 | 1028.3 |
| 20260906034530 | 71 | 121 | 2.6 | 3.5 | 0.00 | 0.00 | 0.00 | 38 | 1028.0 |
| 20260906034025 | 70 | 335 | 0.0 | 0.0 | 0.00 | 0.00 | 0.00 | 38 | 1028.1 |
| 20260906033520 | 70 | 212 | 0.0 | 0.0 | 0.00 | 0.00 | 0.00 | 38 | 1028.1 |
| 20260906033016 | 71 | 260 | 0.0 | 0.0 | 0.00 | 0.00 | 0.00 | 38 | 1028.1 |
| 20260906032513 | 71 | 141 | 0.0 | 0.0 | 0.00 | 0.00 | 0.00 | 37 | 1028.1 |
| 20260906032012 | 71 | 217 | 0.9 | 0.9 | 0.00 | 0.00 | 0.00 | 37 | 1028.1 |
| 20260906031508 | 71 | 207 | 0.0 | 0.9 | 0.00 | 0.00 | 0.00 | 37 | 1028.1 |
| 20260906031003 | 72 | 226 | 0.0 | 0.0 | 0.00 | 0.00 | 0.00 | 36 | 1027.8 |
| 20260906030457 | 73 | 163 | 0.9 | 0.9 | 0.00 | 0.00 | 0.00 | 36 | 1027.9 |
| 20260906025957 | 72 | 93 | 0.0 | 0.9 | 0.00 | 0.00 | 0.00 | 36 | 1027.7 |
| 20260906025456 | 72 | 119 | 0.0 | 0.9 | 0.00 | 0.00 | 0.00 | 36 | 1027.7 |
| 20260906024955 | 73 | 74 | 0.9 | 0.9 | 0.00 | 0.00 | 0.00 | 35 | 1027.5 |
| 20260906024450 | 72 | 151 | 0.0 | 0.0 | 0.00 | 0.00 | 0.00 | 36 | 1027.7 |
| 20260906023950 | 73 | 241 | 0.0 | 0.0 | 0.00 | 0.00 | 0.00 | 36 | 1027.5 |
| 20260906023447 | 74 | 293 | 0.0 | 0.0 | 0.00 | 0.00 | 0.00 | 35 | 1027.4 |
| 20260906022947 | 74 | 67 | 1.7 | 1.7 | 0.00 | 0.00 | 0.00 | 34 | 1027.3 |
| 20260906022442 | 75 | 112 | 0.9 | 1.7 | 0.00 | 0.00 | 0.00 | 34 | 1027.3 |
| 20260906021938 | 75 | 61 | 3.5 | 3.5 | 0.00 | 0.00 | 0.00 | 33 | 1027.5 |
| 20260906021438 | 75 | 90 | 0.9 | 0.9 | 0.00 | 0.00 | 0.00 | 33 | 1027.3 |
| 20260906020932 | 75 | 101 | 4.3 | 6.1 | 0.00 | 0.00 | 0.00 | 33 | 1027.2 |
| 20260906020427 | 75 | 83 | 1.7 | 2.6 | 0.00 | 0.00 | 0.00 | 33 | 1027.2 |
| 20260906015927 | 75 | 60 | 1.7 | 2.6 | 0.00 | 0.00 | 0.00 | 33 | 1027.2 |
| 20260906015426 | 75 | 93 | 1.7 | 1.7 | 0.00 | 0.00 | 0.00 | 33 | 1027.0 |
| 20260906014926 | 75 | 97 | 2.6 | 2.6 | 0.00 | 0.00 | 0.00 | 33 | 1027.0 |
| 20260906014426 | 75 | 130 | 1.7 | 1.7 | 0.00 | 0.00 | 0.00 | 34 | 1027.2 |
| 20260906013923 | 75 | 117 | 1.7 | 1.7 | 0.00 | 0.00 | 0.00 | 34 | 1027.2 |
| 20260906013418 | 76 | 153 | 3.5 | 3.5 | 0.00 | 0.00 | 0.00 | 33 | 1027.2 |
| 20260906012914 | 76 | 131 | 1.7 | 1.7 | 0.00 | 0.00 | 0.00 | 33 | 1027.2 |
| 20260906012414 | 77 | 139 | 0.9 | 1.7 | 0.00 | 0.00 | 0.00 | 33 | 1027.0 |
| 20260906011913 | 76 | 131 | 2.6 | 2.6 | 0.00 | 0.00 | 0.00 | 33 | 1027.1 |
| 20260906011408 | 76 | 130 | 2.6 | 2.6 | 0.00 | 0.00 | 0.00 | 33 | 1027.2 |
| 20260906010909 | 77 | 139 | 3.5 | 3.5 | 0.00 | 0.00 | 0.00 | 33 | 1027.1 |
| 20260906010405 | 77 | 106 | 3.5 | 5.2 | 0.00 | 0.00 | 0.00 | 32 | 1027.3 |
| 20260906005900 | 77 | 156 | 4.3 | 5.2 | 0.00 | 0.00 | 0.00 | 32 | 1027.1 |
| 20260906005400 | 77 | 132 | 5.2 | 6.1 | 0.00 | 0.00 | 0.00 | 32 | 1027.1 |
| 20260906004859 | 77 | 132 | 3.5 | 5.2 | 0.00 | 0.00 | 0.00 | 32 | 1027.2 |
| 20260906004359 | 78 | 144 | 4.3 | 5.2 | 0.00 | 0.00 | 0.00 | 32 | 1027.1 |
| 20260906003854 | 77 | 117 | 3.5 | 5.2 | 0.00 | 0.00 | 0.00 | 33 | 1026.9 |
| 20260906003349 | 77 | 130 | 3.5 | 5.2 | 0.00 | 0.00 | 0.00 | 33 | 1027.0 |
| 20260906002845 | 77 | 110 | 3.5 | 3.5 | 0.00 | 0.00 | 0.00 | 33 | 1026.8 |
| 20260906002344 | 77 | 103 | 3.5 | 3.5 | 0.00 | 0.00 | 0.00 | 33 | 1026.8 |
| 20260906001840 | 77 | 110 | 5.2 | 6.1 | 0.00 | 0.00 | 0.00 | 33 | 1027.0 |
| 20260906001335 | 77 | 145 | 5.2 | 5.2 | 0.00 | 0.00 | 0.00 | 33 | 1026.9 |
| 20260906000830 | 77 | 130 | 2.6 | 2.6 | 0.00 | 0.00 | 0.00 | 33 | 1027.0 |
| 20260906000326 | 77 | 141 | 7.0 | 7.8 | 0.00 | 0.00 | 0.00 | 33 | 1026.9 |
| 20260905235825 | 77 | 156 | 6.1 | 7.0 | 0.00 | 0.00 | 0.00 | 33 | 1027.0 |
| 20260905235320 | 77 | 118 | 7.8 | 8.7 | 0.00 | 0.00 | 0.00 | 33 | 1027.0 |
| 20260905234815 | 77 | 153 | 5.2 | 7.0 | 0.00 | 0.00 | 0.00 | 33 | 1026.8 |
| 20260905234310 | 78 | 132 | 7.8 | 7.8 | 0.00 | 0.00 | 0.00 | 33 | 1026.9 |
| 20260905233806 | 77 | 152 | 5.2 | 6.1 | 0.00 | 0.00 | 0.00 | 33 | 1027.0 |
| 20260905233306 | 77 | 125 | 7.8 | 8.7 | 0.00 | 0.00 | 0.00 | 33 | 1026.6 |
| 20260905232805 | 77 | 155 | 5.2 | 6.1 | 0.00 | 0.00 | 0.00 | 32 | 1026.6 |
| 20260905232301 | 77 | 149 | 7.0 | 7.8 | 0.00 | 0.00 | 0.00 | 33 | 1026.4 |
| 20260905231756 | 77 | 143 | 9.6 | 11.3 | 0.00 | 0.00 | 0.00 | 32 | 1026.6 |
| 20260905231252 | 78 | 142 | 10.4 | 12.2 | 0.00 | 0.00 | 0.00 | 32 | 1026.5 |
| 20260905230748 | 78 | 141 | 7.0 | 7.8 | 0.00 | 0.00 | 0.00 | 31 | 1026.6 |
| 20260905230245 | 78 | 122 | 5.2 | 6.1 | 0.00 | 0.00 | 0.00 | 30 | 1026.5 |
| 20260905225745 | 79 | 141 | 7.8 | 8.7 | 0.00 | 0.00 | 0.00 | 29 | 1026.8 |
| 20260905225241 | 78 | 149 | 4.3 | 5.2 | 0.00 | 0.00 | 0.00 | 30 | 1026.8 |
| 20260905224739 | 80 | 155 | 7.8 | 9.6 | 0.00 | 0.00 | 0.00 | 30 | 1026.6 |